Humidity-temperature Sensor

Selected Measurement Type: Air Temperature

 
Air Temperature [°C]     6 entries per hour
Showing data from 4/19/2015 (00:00:00 Z) to 4/18/2015 (00:01:00 Z)
Previous Next [ Day | 3-Days | 7-Days ]
First Last
Prev [ Day | 3-Days | 7-Days ] Next
First Last

Start Time:     :
End Time:     :     
Time (in GMT) :00 :50 :40 :30 :20 :10
Previous Next [ Day | 3-Days | 7-Days ]
First Last
Prev [ Day | 3-Days | 7-Days ] Next
First Last


123 => good data
MM => data is determined as missing
-- => data not received/configured
Back to Top Back to Top
4/19/2015 00:00 to 23:10 27.51 27.59 27.69 27.71 27.79 27.73
4/18/2015 23:00 to 22:10 27.74 27.71 27.71 27.68 27.66 27.75
4/18/2015 22:00 to 21:10 27.75 27.71 27.80 27.65 27.64 27.80
4/18/2015 21:00 to 20:10 27.74 27.65 27.67 27.64 27.56 27.68
4/18/2015 20:00 to 19:10 27.63 27.64 27.73 27.59 27.58 27.50
4/18/2015 19:00 to 18:10 27.65 27.50 27.47 27.51 27.56 27.65
4/18/2015 18:00 to 17:10 27.61 27.75 27.74 27.65 27.59 27.69
4/18/2015 17:00 to 16:10 27.55 27.56 27.51 27.28 27.29 27.29
4/18/2015 16:00 to 15:10 27.22 27.02 26.74 26.33 26.15 26.96
4/18/2015 15:00 to 14:10 27.28 27.63 27.53 27.61 27.58 27.59
4/18/2015 14:00 to 13:10 27.49 27.52 27.57 27.46 27.45 27.35
4/18/2015 13:00 to 12:10 27.34 27.29 27.28 27.27 27.19 27.25
4/18/2015 12:00 to 11:10 27.29 27.31 27.26 27.26 27.06 27.21
4/18/2015 11:00 to 10:10 27.33 27.18 27.16 27.10 27.12 27.18
4/18/2015 10:00 to 9:10 27.17 27.09 27.17 27.10 27.21 27.19
4/18/2015 09:00 to 8:10 27.08 27.30 27.16 27.23 27.21 27.26
4/18/2015 08:00 to 7:10 27.22 27.24 27.27 27.34 27.25 27.27
4/18/2015 07:00 to 6:10 27.33 27.35 27.34 27.44 27.41 27.36
4/18/2015 06:00 to 5:10 27.30 27.30 27.31 27.28 27.42 27.41
4/18/2015 05:00 to 4:10 27.41 27.41 27.37 27.45 27.50 27.55
4/18/2015 04:00 to 3:10 27.55 27.47 27.46 27.53 27.57 27.53
4/18/2015 03:00 to 2:10 27.39 27.49 27.55 27.31 27.45 27.47
4/18/2015 02:00 to 1:10 27.31 27.53 27.30 27.49 27.53 27.44
4/18/2015 01:00 to 0:10 27.41 27.41 27.48 27.47 27.57 27.37